Weather History for Montgomery, AL

Change the Weather History Date:

Saturday, December 21, 2013

  Actual Average Record
Temperature  
Mean Temperature 70 °F 47 °F  
Max Temperature 81 °F 58 °F 81 °F (2013)
Min Temperature 59 °F 37 °F 12 °F (1901)
Degree Days  
Heating Degree Days 0 18  
Month to date heating degree days 244 334  
Since 1 July heating degree days 612 705  
Cooling Degree Days 8    
Growing Degree Days 22 (Base 50)    
Moisture  
Dew Point 64 °F    
Average Humidity 80    
Maximum Humidity 97    
Minimum Humidity 62    
Precipitation  
Precipitation 0.02 in 0.15 in 3.45 in (1881)
Month to date precipitation 1.99 3.36  
Year to date precipitation 49.25 51.57  
Snow  
Snow 0.00 in 0.00 in - ()
Month to date snowfall 0.0 0.1  
Since 1 July snowfall 0.0 0.1  
Snow Depth 0.00 in    
Sea Level Pressure  
Sea Level Pressure 29.94 in    
Wind  
Wind Speed 12 mph (SSE)    
Max Wind Speed 24 mph    
Max Gust Speed 32 mph    
Visibility 8 miles    
Events Fog , Rain    
T = Trace of Precipitation, MM = Missing Value Source: NWS Daily Summary

Daily Weather History Graph

Daily Weather History Graph

Search for Another Location

Airport:

Trip Planner

Search our weather history database for the weather conditions in past years. The results will help you decide how hot, cold, wet, or windy it might be!

Date:

Astronomy

Dec. 21, 2013 Rise Set
Actual Time 6:42 AM CST 4:44 PM CST
Civil Twilight 6:15 AM CST 5:12 PM CST
Nautical Twilight 5:45 AM CST 5:42 PM CST
Astronomical Twilight 5:15 AM CST 6:12 PM CST
Moon 8:47 PM CST (12/21) 9:20 AM CST (12/21)
Length of Visible Light 10h 56m
Length of Day
10h 01m
Waning Gibbous, 84% of the Moon is Illuminated
Dec 21
Waning Gibbous
Dec 25
Last Quarter
Jan 1
New
Jan 7
First Quarter
Jan 15
Full

Hourly Weather History & Observations

Time (CST) Temp. Heat Index Dew Point Humidity Pressure Visibility Wind Dir Wind Speed Gust Speed Precip Events Conditions
12:53 AM 60.1 °F - 57.0 °F 90% 30.03 in 3.0 mi ENE 3.5 mph - N/A   Partly Cloudy
1:00 AM 60.8 °F - 57.2 °F 88% 30.03 in 2.0 mi East 3.5 mph - N/A   Partly Cloudy
1:02 AM 60.8 °F - 57.2 °F 88% 30.03 in 1.2 mi East 3.5 mph - N/A   Partly Cloudy
1:04 AM 59.0 °F - 57.2 °F 94% 30.03 in 0.8 mi East 3.5 mph - N/A   Partly Cloudy
1:12 AM 59.0 °F - 57.2 °F 94% 30.03 in 0.2 mi East 3.5 mph - N/A Fog Fog
1:28 AM 59.0 °F - 57.2 °F 94% 30.02 in 1.0 mi ESE 6.9 mph - N/A   Mist
1:31 AM 60.8 °F - 57.2 °F 88% 30.02 in 2.0 mi ESE 6.9 mph - N/A   Scattered Clouds
1:38 AM 60.8 °F - 59.0 °F 94% 30.02 in 8.0 mi ESE 6.9 mph - N/A   Mostly Cloudy
1:53 AM 61.0 °F - 59.0 °F 93% 30.01 in 8.0 mi ESE 5.8 mph - N/A   Mostly Cloudy
2:30 AM 59.0 °F - 57.2 °F 94% 30.01 in 1.8 mi ESE 4.6 mph - N/A   Clear
2:43 AM 59.0 °F - 57.2 °F 94% 30.01 in 3.0 mi ESE 3.5 mph - N/A   Scattered Clouds
2:53 AM 60.1 °F - 57.9 °F 93% 30.00 in 5.0 mi SE 4.6 mph - N/A   Mostly Cloudy
3:14 AM 62.6 °F - 60.8 °F 94% 30.00 in 10.0 mi SE 4.6 mph - N/A   Overcast
3:53 AM 64.9 °F - 63.0 °F 93% 29.98 in 10.0 mi SSE 6.9 mph - N/A   Overcast
4:53 AM 68.0 °F - 64.0 °F 87% 29.97 in 9.0 mi SSE 10.4 mph - N/A   Overcast
5:53 AM 68.0 °F - 63.0 °F 84% 29.96 in 10.0 mi SSE 13.8 mph - N/A   Overcast
6:53 AM 68.0 °F - 64.0 °F 87% 29.96 in 10.0 mi SSE 11.5 mph - 0.00 in   Overcast
7:53 AM 69.1 °F - 64.9 °F 87% 29.95 in 10.0 mi SSE 11.5 mph - N/A   Overcast
8:53 AM 72.0 °F - 66.0 °F 81% 29.96 in 10.0 mi South 16.1 mph 23.0 mph N/A   Overcast
9:14 AM 73.4 °F - 66.2 °F 78% 29.96 in 10.0 mi South 12.7 mph - N/A   Overcast
9:53 AM 73.9 °F - 66.0 °F 76% 29.95 in 10.0 mi South 17.3 mph 27.6 mph N/A   Overcast
10:53 AM 75.0 °F - 66.0 °F 73% 29.94 in 10.0 mi South 10.4 mph 23.0 mph N/A   Overcast
11:53 AM 75.9 °F - 66.0 °F 71% 29.91 in 10.0 mi South 11.5 mph 20.7 mph N/A   Overcast
12:24 PM 80.6 °F 82.7 °F 66.2 °F 61% 29.89 in 10.0 mi South 16.1 mph 27.6 mph N/A   Mostly Cloudy
12:53 PM 79.0 °F - 66.0 °F 64% 29.88 in 10.0 mi South 15.0 mph 21.9 mph N/A   Overcast
1:53 PM 80.1 °F 82.1 °F 66.0 °F 62% 29.86 in 10.0 mi SSE 12.7 mph 21.9 mph N/A   Overcast
2:49 PM 78.8 °F - 66.2 °F 65% 29.87 in 10.0 mi South 12.7 mph 25.3 mph N/A   Overcast
2:53 PM 79.0 °F - 66.9 °F 66% 29.87 in 10.0 mi South 15.0 mph 25.3 mph N/A   Overcast
3:53 PM 78.1 °F - 66.9 °F 68% 29.87 in 10.0 mi South 20.7 mph 26.5 mph N/A   Overcast
4:53 PM 75.0 °F - 68.0 °F 79% 29.88 in 10.0 mi SSE 13.8 mph 21.9 mph N/A   Overcast
5:39 PM 73.4 °F - 68.0 °F 83% 29.89 in 10.0 mi South 11.5 mph 24.2 mph N/A   Mostly Cloudy
5:53 PM 73.9 °F - 68.0 °F 82% 29.89 in 10.0 mi SSE 12.7 mph 20.7 mph N/A   Mostly Cloudy
6:18 PM 73.4 °F - 69.8 °F 88% 29.90 in 10.0 mi South 9.2 mph - 0.01 in Rain Light Rain
6:53 PM 73.0 °F - 69.1 °F 87% 29.90 in 10.0 mi SSE 9.2 mph - 0.02 in Rain Light Rain
7:53 PM 73.9 °F - 69.1 °F 85% 29.89 in 10.0 mi South 13.8 mph 20.7 mph N/A   Mostly Cloudy
8:53 PM 73.9 °F - 68.0 °F 82% 29.86 in 10.0 mi South 15.0 mph 28.8 mph N/A   Mostly Cloudy
9:53 PM 75.0 °F - 68.0 °F 79% 29.89 in 10.0 mi South 15.0 mph 26.5 mph N/A   Overcast
10:53 PM 75.0 °F - 66.9 °F 76% 29.90 in 10.0 mi South 12.7 mph - N/A   Overcast
11:15 PM 75.2 °F - 66.2 °F 73% 29.90 in 10.0 mi South 15.0 mph 20.7 mph N/A   Overcast
11:45 PM 75.2 °F - 66.2 °F 73% 29.89 in 10.0 mi South 13.8 mph 21.9 mph N/A   Overcast
11:53 PM 75.0 °F - 66.9 °F 76% 29.88 in 10.0 mi South 13.8 mph - N/A   Mostly Cloudy